Weather History for KSLC - April, 2012

Change the Weather History Date:

Wednesday, April 18, 2012

  Actual Average Record
Temperature  
Mean Temperature 54 °F 51 °F  
Max Temperature 58 °F 62 °F 84 °F (1962)
Min Temperature 50 °F 40 °F 27 °F (2013)
Degree Days  
Heating Degree Days 11 14  
Month to date heating degree days 262 289  
Since 1 July heating degree days 4735 5207  
Cooling Degree Days 0 0  
Month to date cooling degree days 0 0  
Year to date cooling degree days 3 0  
Growing Degree Days 2 (Base 50)    
Moisture  
Dew Point 40 °F    
Average Humidity 64    
Maximum Humidity 74    
Minimum Humidity 54    
Precipitation  
Precipitation 0.01 in 0.06 in 1.07 in (1959)
Month to date precipitation 1.47 1.18  
Year to date precipitation 4.97 5.47  
Snow  
Snow 0.00 in 0.10 in 6.50 in (1972)
Month to date snowfall 1.0 3.0  
Since 1 July snowfall 24.8 54.9  
Snow Depth 0.00 in    
Sea Level Pressure  
Sea Level Pressure 29.97 in    
Wind  
Wind Speed 9 mph (East)    
Max Wind Speed 28 mph    
Max Gust Speed 31 mph    
Visibility 10 miles    
Events Rain    
T = Trace of Precipitation, MM = Missing Value Source: NWS Daily Summary

Daily Weather History Graph

Daily Weather History Graph

Search for Another Location

Airport or City:

Trip Planner

Search our weather history database for the weather conditions in past years. The results will help you decide how hot, cold, wet, or windy it might be!

Date:

Astronomy

Apr. 18, 2012 Rise Set
Actual Time 6:43 AM MDT 8:11 PM MDT
Civil Twilight 6:15 AM MDT 8:39 PM MDT
Nautical Twilight 5:40 AM MDT 9:14 PM MDT
Astronomical Twilight 5:04 AM MDT 9:51 PM MDT
Moon 5:11 AM MDT (4/18) 6:04 PM MDT (4/18)
Length of Visible Light 14h 24m
Length of Day
13h 27m
Waning Crescent, 6% of the Moon is Illuminated
Apr 18
Waning Crescent
Apr 21
New
Apr 29
First Quarter
May 5
Full
May 12
Last Quarter

Hourly Weather History & Observations

Time (MDT) Temp. Windchill Dew Point Humidity Pressure Visibility Wind Dir Wind Speed Gust Speed Precip Events Conditions
12:53 AM 53.1 °F - 39.0 °F 59% 29.98 in 10.0 mi SE 16.1 mph - N/A   Mostly Cloudy
1:53 AM 53.1 °F - 37.9 °F 57% 29.95 in 10.0 mi SSE 12.7 mph - N/A   Overcast
2:53 AM 53.1 °F - 37.0 °F 55% 29.92 in 10.0 mi SSE 9.2 mph - N/A   Mostly Cloudy
3:53 AM 53.1 °F - 39.0 °F 59% 29.90 in 10.0 mi East 10.4 mph - N/A   Mostly Cloudy
4:53 AM 53.1 °F - 37.9 °F 57% 29.88 in 10.0 mi SSE 9.2 mph - N/A   Mostly Cloudy
5:53 AM 52.0 °F - 37.9 °F 59% 29.87 in 10.0 mi SE 6.9 mph - N/A   Overcast
6:53 AM 53.1 °F - 37.0 °F 55% 29.88 in 10.0 mi SE 9.2 mph - N/A   Overcast
7:53 AM 54.0 °F - 37.9 °F 55% 29.89 in 10.0 mi Calm Calm - 0.00 in Rain Light Rain
8:53 AM 54.0 °F - 41.0 °F 62% 29.93 in 10.0 mi SW 3.5 mph - 0.00 in   Overcast
9:53 AM 55.0 °F - 44.1 °F 67% 29.97 in 10.0 mi West 13.8 mph - 0.00 in Rain Light Rain
10:09 AM 53.6 °F - 44.6 °F 72% 30.05 in 10.0 mi NW 10.4 mph - 0.00 in Rain Light Rain
10:53 AM 50.0 °F - 39.9 °F 68% 30.03 in 10.0 mi North 13.8 mph - 0.00 in Rain Light Rain
11:53 AM 52.0 °F - 44.1 °F 74% 30.04 in 10.0 mi NNE 11.5 mph - 0.01 in Rain Light Rain
12:53 PM 53.1 °F - 44.1 °F 71% 30.03 in 10.0 mi NNW 6.9 mph - 0.00 in   Overcast
1:06 PM 53.6 °F - 44.6 °F 72% 30.09 in 10.0 mi North 10.4 mph - N/A   Overcast
1:34 PM 53.6 °F - 42.8 °F 67% 30.09 in 10.0 mi NNE 10.4 mph - N/A   Overcast
1:45 PM 53.6 °F - 42.8 °F 67% 30.08 in 10.0 mi NNE 9.2 mph - N/A   Overcast
1:53 PM 53.1 °F - 43.0 °F 69% 30.02 in 10.0 mi North 9.2 mph - N/A   Overcast
2:53 PM 55.0 °F - 43.0 °F 64% 30.00 in 10.0 mi NNW 5.8 mph - 0.00 in   Mostly Cloudy
3:53 PM 55.0 °F - 41.0 °F 59% 29.99 in 10.0 mi North 6.9 mph - N/A   Overcast
4:53 PM 55.9 °F - 41.0 °F 57% 29.96 in 10.0 mi SE 3.5 mph - N/A   Overcast
5:53 PM 57.2 °F - 41.0 °F 55% 30.03 in 10.0 mi Calm Calm - N/A   Mostly Cloudy
6:53 PM 55.9 °F - 41.0 °F 57% 29.95 in 10.0 mi South 4.6 mph - N/A   Mostly Cloudy
7:53 PM 54.0 °F - 39.9 °F 59% 29.94 in 10.0 mi SE 4.6 mph - N/A   Mostly Cloudy
8:53 PM 52.0 °F - 39.9 °F 63% 29.96 in 10.0 mi South 4.6 mph - N/A   Scattered Clouds
9:53 PM 50.0 °F - 41.0 °F 71% 29.98 in 10.0 mi East 5.8 mph - N/A   Scattered Clouds
10:53 PM 48.0 °F - 39.0 °F 71% 29.99 in 10.0 mi SE 5.8 mph - N/A   Mostly Cloudy
11:53 PM 46.0 °F 43.1 °F 34.0 °F 63% 29.99 in 10.0 mi ESE 5.8 mph - N/A   Mostly Cloudy